Regional Weather Roundup
Issued by NWS Albany, NY

Home | Current Version | Previous Version | Text Only | Print | Product List | Glossary On
Versions: 1 2 3 4 5 6 7 8 9 10 11 12 13 14 15 16 17 18 19 20 21 22 23 24 25 26 27 28 29 30 31 32 33 34 35 36 37 38 39 40 41 42 43 44 45 46 47 48 49 50
000
ASUS41 KALY 270810
RWRALY

NEW YORK STATE HOURLY WEATHER ROUNDUP
NATIONAL WEATHER SERVICE ALBANY NY
400 AM EDT WED MAY 27 2015

NOTE: "FAIR" INDICATES FEW OR NO CLOUDS BELOW 12,000 FEET WITH NO
SIGNIFICANT WEATHER AND/OR NO OBSTRUCTIONS TO VISIBILITY.

NYZ032-033-038>043-046>054-057>066-NYZ062>081-270900-
EAST


CITY           SKY/WX    TMP DP  RH WIND       PRES   REMARKS
ALBANY         MOCLDY    72  63  73 S12       30.08S
GLENS FALLS    NOT AVBL
POUGHKEEPSIE   CLEAR     64  61  90 CALM      30.11F
MONTGOMERY     FOG       62  62 100 CALM      30.12F VSB 1/4
WHITE PLAINS   CLEAR     63  59  87 CALM      30.15S
ISLIP          PTCLDY    64  59  83 SW12      30.17S
NEW YORK CITY  PTCLDY    69  60  73 S7        30.14F
CENTRAL PARK   CLEAR     71  62  73 SW8       30.17F
$$

NYZ005>009-017-018-044>046-055-056-270900-
CENTRAL


CITY           SKY/WX    TMP DP  RH WIND       PRES   REMARKS
FULTON         MOCLDY    70  64  81 VRB3      29.99F
SYRACUSE       PTCLDY    75  64  68 S9        29.99F
ROME           MOCLDY    69  64  84 NE3       30.04F
ELMIRA         CLEAR     70  64  81 CALM      30.04F
BINGHAMTON     CLEAR     67  64  90 S8        30.10S
MONTICELLO     MOCLDY    63  63 100 SE3       30.16F
$$

NYZ026>034-041>043-270900-
NORTH


CITY           SKY/WX    TMP DP  RH WIND       PRES   REMARKS
WATERTOWN      PTCLDY    73  65  75 S7        29.96F
FORT DRUM      NOT AVBL
MASSENA        PTCLDY    64  62  93 CALM      29.97S FOG
SARANAC LAKE   MOCLDY    69  63  81 SW9       30.04F
PLATTSBURGH    LGT RAIN  65  61  87 CALM      29.99F
$$

NYZ001>004-010>016-019>021-270900-
WEST


CITY           SKY/WX    TMP DP  RH WIND       PRES   REMARKS
NIAGARA FALLS  CLOUDY    68  63  84 SW12      29.96R
BUFFALO        MOCLDY    69  62  78 SW12      29.97R
DUNKIRK        CLOUDY    73  64  73 SW8       29.98R
JAMESTOWN      MOCLDY    68  61  77 S9G18     30.05R
WELLSVILLE     MOCLDY    68  62  81 S10G17    30.09S
ROCHESTER      PTCLDY    71  64  78 S7        29.96F
PENN YAN       PTCLDY    70  63  78 S9        30.02F
$$

             KEY
       WCI = WIND CHILL INDEX
       VSB = VISIBILITY
       HX  = HEAT INDEX
$$



USA.gov is the U.S. government's official web portal to all federal, state and local government web resources and services.